Location: San Pelegr�n
(42.1868°N, 0.0079°E)
Time: 03:28:18
(UTC+00:00)

CZ-4 R/B - Pass Details

Date: 24 January 2020
Orbit: 534 x 597 km, 97.7° (Epoch: 18 February)

Event Time Altitude Azimuth Distance (km) Brightness Sun altitude
Rises 17:25:06 0° 133° (SE) 2,756 4.6 -4.5°
Reaches altitude 10° 17:27:35 10° 118° (ESE) 1,876 3.7 -4.9°
Maximum altitude 17:30:43 22° 67° (ENE) 1,289 2.6 -5.5°
Drops below altitude 10° 17:33:55 10° 16° (NNE) 1,914 3.7 -6.0°
Sets 17:36:28 0° 2° (N) 2,829 4.7 -6.5°
